Location: Góry Miechowskie
(50.3599°N, 20.1803°E)
Time: 14:57:54
(UTC+00:00)

Tiros 1 - Pass Details

Date: 20 September 2024
Orbit: 623 x 654 km, 48.4° (Epoch: 11 October)

Event Time Altitude Azimuth Distance (km) Brightness Sun altitude
Rises 18:28:16 0° 279° (W) 2,910 12.0 -17.4°
Reaches altitude 10° 18:31:16 10° 258° (WSW) 2,005 10.5 -17.9°
Maximum altitude 18:34:11 17° 219° (SW) 1,610 9.3 -18.3°
Enters shadow 18:36:55 11° 182° (S) 1,964 9.4 -18.7°
